Theta_e
352 350 353 358 358 358 359 359 359 359 359 359 359 359 359 359 358 358 357 357 357 356 356 356 355 354 353 353 352 353 353 352 352 352 352 351 350 351 351 351 351 350 351 351 351 351 351 350 350 350 349 348 348 347 346 347 346 345 346 345 345 345 344 344 344 343 344 343 343 343 343 343 342 342 341 344 344 342 342 342 341 338 338 339 341
350 351 354 356 357 358 358 358 359 359 359 360 359 359 359 358 358 358 357 357 357 356 355 355 355 353 353 353 353 353 352 352 352 352 352 351 351 351 351 351 351 350 350 350 350 351 351 350 350 348 348 348 348 347 346 347 347 346 345 344 343 343 344 344 343 343 343 344 343 342 342 342 341 341 345 344 344 342 341 341 341 337 336 340 341
352 351 353 355 357 358 358 358 358 359 359 358 359 359 358 358 358 358 357 357 357 356 355 355 354 354 353 353 352 352 352 351 351 351 351 351 351 351 350 350 349 349 349 350 349 350 350 350 349 348 348 347 347 347 347 346 346 345 345 344 344 343 344 344 343 343 343 343 343 342 342 342 343 343 344 344 342 341 341 341 341 340 336 341 341
349 350 354 357 357 357 357 358 358 358 358 358 358 358 358 358 358 357 357 357 356 355 354 354 354 353 352 352 352 352 351 351 351 351 351 350 350 350 349 349 348 348 349 350 350 350 349 350 348 346 346 346 345 346 347 346 346 344 344 344 344 344 344 343 342 343 343 343 343 341 340 337 338 341 341 342 341 340 340 340 339 341 341 340 340
350 351 353 353 355 356 357 357 357 358 358 358 358 358 358 357 357 357 356 356 355 355 354 354 354 353 352 352 352 352 351 351 350 350 350 350 350 350 349 349 349 349 349 349 349 349 349 348 346 345 345 346 346 346 347 347 346 345 345 345 344 343 343 343 342 342 342 343 344 343 335 336 337 341 341 340 341 340 339 339 338 338 339 338 339
350 350 350 351 353 355 356 357 357 357 357 357 357 357 357 356 356 356 356 356 355 354 354 354 353 352 352 352 352 351 351 350 350 349 349 349 349 349 348 348 348 348 348 347 347 346 347 346 344 345 345 345 349 349 347 346 345 344 345 345 344 344 343 343 342 341 342 343 344 343 337 337 338 339 341 340 341 339 339 339 339 338 338 339 339
349 348 348 350 351 354 355 356 356 357 357 357 357 357 356 356 356 356 355 355 354 354 353 353 353 352 352 352 351 351 350 350 350 349 348 348 348 348 348 348 348 347 346 346 345 344 345 345 345 346 345 347 349 348 347 347 346 346 346 344 344 343 342 343 343 342 342 345 340 342 339 336 337 338 341 340 339 339 339 339 338 335 338 339 338
349 348 347 348 351 354 355 356 356 356 356 356 356 357 356 356 356 355 355 354 353 353 353 353 352 352 352 351 351 350 350 350 349 348 347 347 348 348 348 347 347 346 345 344 343 343 344 344 345 346 346 348 346 345 346 346 347 347 345 345 344 343 342 342 342 342 345 340 341 343 338 337 336 336 341 342 340 338 338 338 340 340 339 340 339
349 348 347 349 351 355 355 355 356 356 355 355 355 356 355 355 355 355 354 354 353 353 353 352 352 352 351 351 351 350 350 349 349 348 347 347 347 348 347 346 346 345 345 347 347 345 344 344 344 345 344 343 344 343 345 346 346 346 345 344 343 341 342 341 342 343 343 340 339 342 338 337 338 337 338 341 341 338 337 339 340 340 339 338 337
349 349 348 349 352 354 354 355 355 355 355 355 355 355 355 354 355 354 354 354 353 353 352 352 352 351 350 350 350 350 349 349 348 347 347 347 347 347 346 346 346 345 345 345 346 345 345 345 344 345 344 343 343 343 344 345 345 344 343 343 342 342 342 343 341 340 337 339 343 342 342 343 337 337 338 339 338 340 341 342 339 338 334 335 338
350 350 349 349 353 353 354 354 355 355 355 356 355 355 354 354 354 354 353 353 353 352 352 352 352 351 350 350 350 349 349 349 348 348 348 348 347 347 346 345 345 344 345 345 345 345 345 345 346 346 346 346 344 344 343 343 344 343 343 342 340 341 341 339 341 334 335 338 340 343 344 344 335 334 338 337 338 338 340 340 339 339 338 337 336
350 350 349 351 356 352 353 354 355 355 355 354 355 355 354 354 354 353 353 353 352 352 352 352 352 351 351 351 351 350 350 349 349 348 348 347 346 346 346 345 345 344 344 344 344 345 345 345 346 346 345 345 344 344 343 343 342 343 343 341 340 340 340 340 338 333 335 336 340 338 336 336 335 336 338 336 335 337 337 336 337 337 337 337 337
349 349 351 352 352 352 353 354 354 354 355 355 354 354 354 354 354 353 353 352 353 352 352 352 352 352 352 351 351 351 350 349 349 348 347 346 346 346 346 345 344 344 344 343 343 343 344 345 345 344 344 344 343 342 342 341 342 342 342 340 340 339 340 341 336 335 337 332 337 337 335 335 335 338 337 337 337 337 336 335 335 337 337 336 336
349 349 349 350 351 356 353 353 354 355 355 354 354 354 353 353 353 353 353 353 353 353 353 352 352 352 352 351 351 351 350 350 349 349 348 347 347 346 346 345 344 344 343 343 343 343 344 344 344 343 343 342 341 341 341 342 341 341 341 340 338 339 340 339 340 336 336 335 339 337 337 337 336 339 337 337 337 337 336 335 336 336 336 335 335
349 347 347 349 350 352 355 353 353 354 354 353 354 353 353 353 353 353 353 353 353 353 353 352 353 352 352 352 351 351 351 350 349 348 347 347 347 346 345 345 344 344 343 342 343 343 344 343 343 343 342 341 341 340 339 339 340 342 341 340 339 340 341 337 337 338 337 335 337 337 335 336 341 339 339 338 336 335 335 335 334 335 335 334 335
350 347 348 348 349 350 351 354 353 353 353 353 353 353 353 352 352 352 352 352 352 352 353 353 352 352 352 352 351 351 350 350 349 348 347 347 347 346 346 345 344 344 343 342 343 344 344 343 343 343 342 341 341 339 338 341 341 342 342 342 340 342 341 342 337 337 334 336 335 336 335 337 341 340 338 336 336 335 334 334 335 335 335 334 334
349 348 347 347 348 348 349 350 351 352 352 353 353 353 353 353 352 352 352 352 352 352 352 352 352 352 352 352 351 351 350 350 350 349 347 346 346 346 346 345 344 344 343 343 343 343 343 343 343 343 342 341 340 340 340 341 343 342 343 343 342 341 343 344 338 338 338 339 338 335 334 336 340 339 339 337 336 335 334 334 335 335 334 334 334
348 347 345 347 346 347 348 349 350 350 350 351 352 352 352 352 352 353 352 352 352 352 351 352 352 352 351 350 350 350 349 349 349 348 347 347 348 348 346 345 344 344 343 345 344 344 343 343 343 343 342 341 339 339 341 341 342 343 343 342 344 343 342 344 340 338 333 338 335 336 335 339 340 339 338 336 335 334 334 334 333 334 334 333 334
347 348 347 345 345 345 348 349 349 349 349 350 350 350 350 350 351 352 351 351 352 351 351 351 351 351 351 349 349 349 348 347 350 350 350 348 347 347 348 346 345 344 344 345 344 344 343 343 343 343 343 340 338 341 341 341 341 342 343 343 344 344 345 343 339 334 330 337 336 335 336 340 340 338 337 336 335 333 333 333 333 333 333 333 333
341 345 345 347 346 346 349 347 347 348 349 350 349 349 350 350 350 349 349 350 351 350 350 351 351 351 350 349 349 349 348 348 349 347 349 349 348 346 347 347 345 345 345 345 344 344 343 343 343 343 343 340 340 340 340 341 342 341 343 343 343 343 340 338 339 330 336 337 335 335 339 340 339 338 337 336 334 333 333 332 333 333 333 333 333
340 342 346 346 344 347 346 347 346 347 348 348 348 348 348 349 349 349 349 349 348 348 347 348 349 349 350 349 349 347 346 346 348 343 346 347 347 347 346 346 346 345 345 345 344 344 344 343 343 344 342 341 340 340 340 339 340 340 342 343 342 339 338 339 338 337 337 337 336 336 341 339 338 338 338 337 335 334 332 333 332 333 333 332 332
342 339 341 344 345 345 345 345 346 346 347 349 348 348 347 348 347 348 348 347 347 348 346 347 348 347 348 348 347 347 347 345 345 345 345 344 346 347 346 346 346 345 345 345 345 344 343 343 343 344 342 341 341 336 337 339 340 337 340 341 340 337 338 340 339 337 336 335 337 339 341 339 338 338 337 336 335 334 333 332 333 333 332 332 332
340 340 340 342 345 343 345 344 347 347 347 346 347 347 346 347 346 347 346 347 349 349 347 345 345 345 346 344 347 347 343 343 347 343 344 344 345 347 346 346 345 346 345 345 345 343 344 343 343 343 342 341 338 333 333 333 335 339 340 338 336 337 339 341 339 339 335 335 335 341 340 339 338 338 337 336 336 334 333 332 332 332 332 331 331
338 339 339 342 342 341 342 345 344 346 345 345 347 347 347 346 345 346 345 346 346 346 345 344 345 345 344 345 346 346 343 343 344 342 341 343 345 347 347 347 345 346 345 344 344 343 343 343 343 343 341 339 333 331 330 332 329 333 335 335 336 338 341 339 339 337 335 337 336 341 339 338 338 337 337 335 335 334 333 332 332 332 332 331 331
338 342 340 340 341 342 343 344 345 345 345 345 346 346 347 346 346 345 344 345 344 345 345 341 341 343 344 345 342 344 342 342 343 343 342 342 340 343 346 343 342 341 345 340 341 341 341 340 340 340 336 332 330 329 329 331 331 332 331 333 335 340 338 340 338 335 333 335 338 341 340 340 338 336 336 335 335 334 333 332 331 331 331 331 331
337 337 337 338 340 342 342 344 344 343 345 344 345 346 346 345 345 345 345 345 344 344 344 343 343 342 343 343 344 345 344 343 343 342 341 345 341 339 340 341 340 338 343 337 336 334 338 337 336 335 331 331 331 331 332 336 332 333 332 333 337 336 337 336 339 336 335 335 338 341 340 340 338 336 336 336 334 334 334 332 332 331 331 331 330
335 335 336 338 338 341 342 342 341 341 343 346 345 345 345 346 346 345 343 343 344 344 342 343 343 344 343 343 342 343 341 342 342 341 342 342 338 340 345 344 342 342 340 336 336 336 338 336 338 335 333 333 332 332 336 333 333 331 333 334 335 335 336 337 337 335 334 335 340 341 341 340 340 337 337 336 333 334 334 333 332 331 331 330 330
332 332 332 333 338 340 340 340 342 341 340 341 344 343 344 344 345 345 346 347 344 343 343 343 341 341 343 344 345 343 339 339 338 342 340 340 339 340 343 344 342 342 340 339 336 336 337 336 338 337 336 335 333 337 334 332 333 333 333 332 334 340 338 341 340 337 335 334 338 341 341 341 340 339 338 337 334 334 334 333 333 331 330 330 330
332 333 333 332 333 337 341 340 341 342 342 342 341 341 342 342 342 342 343 343 341 342 343 343 343 342 342 342 340 339 337 338 339 338 340 338 337 339 340 340 339 338 336 338 337 335 335 335 336 335 334 333 334 335 334 332 336 334 331 330 334 332 335 336 340 337 336 334 334 340 342 341 341 341 338 338 335 335 334 334 334 332 331 330 329
334 333 333 333 331 332 334 340 341 340 340 339 340 341 341 342 341 341 346 343 343 343 341 340 341 341 343 341 340 338 338 340 341 339 336 338 339 340 340 339 338 339 337 337 338 338 339 337 335 333 331 332 331 333 334 332 331 333 331 328 331 332 336 334 335 336 336 335 334 338 342 341 341 342 341 339 337 336 335 334 335 334 332 330 330
334 331 332 332 334 329 330 330 331 342 337 334 337 338 340 341 341 343 342 341 342 344 343 341 342 341 342 342 338 338 336 340 337 338 340 338 337 337 339 340 341 342 346 343 341 343 341 339 335 334 332 331 329 332 332 331 331 329 329 327 328 330 331 335 332 334 334 336 335 336 339 341 341 341 341 340 339 338 337 336 335 335 334 333 333
332 333 334 329 337 330 328 330 333 338 348 334 337 335 336 337 339 338 340 339 340 343 340 340 343 341 340 339 339 338 337 339 339 338 336 334 335 335 341 341 341 344 345 343 339 338 339 335 337 335 338 332 334 330 332 333 329 329 330 328 327 329 328 331 332 333 333 335 335 334 336 338 341 342 341 341 342 339 338 337 336 336 335 334 333
334 336 330 335 336 334 331 330 331 342 336 335 333 335 336 337 336 337 336 338 339 338 337 337 338 338 337 340 340 339 336 337 337 339 338 336 337 337 338 340 342 342 344 342 338 341 338 340 333 335 336 335 334 338 333 335 333 331 331 328 331 327 326 327 331 333 333 334 337 336 334 336 337 340 339 341 341 341 339 338 337 337 336 335 334
330 331 336 335 335 337 336 334 334 332 336 332 342 334 339 334 342 336 337 336 339 337 338 338 339 337 336 337 338 337 339 335 335 336 336 338 340 339 335 338 340 342 343 345 342 340 338 337 336 334 335 333 332 334 332 331 332 333 334 333 333 333 331 327 329 332 334 336 334 337 336 334 335 336 338 341 340 340 340 340 338 337 337 336 335
330 331 334 334 337 337 338 337 338 335 333 334 334 335 338 335 333 335 339 337 334 334 334 336 335 335 335 337 337 338 338 339 341 341 341 339 339 339 340 338 340 341 341 342 341 340 339 336 338 332 335 334 333 334 332 333 335 334 335 335 334 333 333 332 331 329 330 331 335 333 336 336 334 335 335 337 340 339 339 340 340 339 337 337 336
331 334 337 337 336 339 340 338 339 339 338 338 338 339 339 339 337 336 338 343 337 334 334 334 335 336 335 334 334 336 339 339 344 342 343 342 339 339 341 343 340 340 341 340 337 338 337 340 336 336 336 329 330 332 335 335 333 333 335 335 334 334 333 331 331 330 329 334 331 334 334 336 336 335 336 335 336 338 338 339 339 340 340 338 337
332 335 336 339 337 339 340 340 338 338 338 338 337 339 339 337 336 336 334 337 337 337 338 337 336 339 336 335 336 337 337 338 339 342 345 342 341 342 343 341 343 340 340 342 339 341 339 335 334 336 337 333 333 332 333 333 334 333 334 334 335 335 334 333 333 333 333 330 335 332 334 334 335 342 337 335 334 335 337 338 339 339 339 339 339
335 337 339 338 336 337 340 341 338 337 338 338 337 340 332 335 336 334 338 335 337 337 333 333 336 337 337 339 339 340 340 338 337 339 341 339 337 338 338 338 340 338 338 340 340 339 337 333 333 336 336 333 334 331 331 331 330 332 332 334 335 335 335 336 335 335 332 331 330 330 332 333 332 332 335 337 336 334 335 336 338 338 339 337 336
336 337 339 338 336 338 339 340 337 336 336 338 339 335 336 328 331 331 332 333 331 333 336 331 333 335 338 338 337 338 340 338 339 340 341 341 337 338 338 338 340 338 337 336 336 333 331 331 330 332 336 335 333 333 332 332 331 331 331 334 334 335 335 337 336 334 333 333 333 333 329 330 333 332 333 334 336 337 334 333 335 336 336 337 338
337 337 339 338 338 339 339 338 336 336 337 337 334 331 334 332 330 331 328 328 328 330 334 332 333 332 335 335 334 338 336 338 338 341 340 342 340 339 341 340 338 337 336 333 332 332 330 329 329 329 332 333 333 331 332 330 331 331 330 331 334 333 334 335 334 334 334 333 332 331 330 331 331 331 334 334 334 336 337 333 334 334 335 336 337
338 338 338 337 338 337 338 335 334 335 333 331 331 330 330 331 335 328 327 332 325 328 328 329 327 327 326 325 329 333 334 334 338 337 335 336 338 339 342 339 337 334 332 333 335 334 331 330 328 329 329 329 328 331 329 329 326 325 327 328 329 333 333 332 332 334 334 334 332 331 332 331 330 330 332 333 333 332 338 336 333 333 333 334 335
336 337 337 338 339 339 337 335 334 334 334 335 338 335 334 327 333 327 327 325 321 323 323 325 325 327 328 330 333 334 335 336 337 336 337 339 335 336 337 337 335 334 333 335 333 333 331 329 329 329 329 328 326 328 327 328 322 322 321 323 326 330 332 332 332 334 335 336 334 334 332 331 329 330 330 330 331 331 331 336 336 335 334 335 334
336 335 337 339 340 339 338 334 333 332 334 335 332 333 333 336 335 333 327 322 323 325 322 324 326 325 334 332 335 335 334 330 333 333 335 334 332 334 335 334 332 334 333 333 333 331 330 329 328 328 328 329 328 331 329 328 322 325 325 321 319 319 324 327 331 332 334 336 335 333 333 332 332 332 330 331 330 331 332 331 333 334 335 335 336
330 333 335 336 339 338 336 333 332 332 333 332 332 333 333 332 331 327 328 326 322 325 327 329 328 328 326 329 330 332 329 328 327 333 328 329 332 336 331 331 335 335 333 331 332 330 330 329 328 328 327 323 325 325 329 326 327 324 316 318 318 318 315 318 322 329 334 335 333 331 331 330 337 335 335 332 332 334 334 333 331 332 333 334 336
328 328 334 335 337 337 336 333 331 331 331 331 332 331 330 329 327 325 323 323 325 325 326 325 326 327 327 329 331 332 329 329 332 326 325 328 328 330 330 331 333 333 333 330 330 329 331 330 329 327 327 325 322 325 327 330 329 329 323 318 316 315 316 319 321 322 330 330 333 334 334 330 332 331 332 335 333 336 334 335 333 333 332 332 333
327 327 331 337 338 337 336 333 331 330 329 332 332 330 330 327 325 321 320 321 321 324 321 321 326 325 323 330 326 327 327 329 326 326 327 328 331 329 330 330 330 332 334 329 326 327 329 329 327 324 325 326 324 323 325 326 327 327 328 327 324 318 318 320 319 314 326 329 330 332 333 332 334 332 332 331 330 332 332 332 333 333 334 333 334
325 327 329 335 338 338 336 332 330 329 330 331 331 330 328 326 325 322 322 321 321 325 327 327 324 325 327 327 329 331 327 328 328 327 325 325 326 327 327 326 328 328 329 327 325 324 322 323 326 326 326 326 326 322 322 322 326 325 326 327 327 325 325 321 315 318 316 323 329 329 332 335 335 331 328 328 329 333 334 334 333 333 334 334 335
327 327 329 335 337 338 336 332 330 329 329 331 329 328 326 325 324 323 323 324 324 322 326 326 329 327 328 327 327 331 327 330 330 326 326 325 325 325 324 322 324 322 322 321 322 323 324 325 326 326 326 327 326 324 322 323 322 321 327 324 324 325 326 325 324 319 316 313 318 328 328 328 331 330 329 327 329 334 334 334 331 332 334 339 337
326 328 334 336 336 338 336 332 330 329 330 330 327 327 326 324 325 323 324 325 323 324 323 323 325 327 327 329 329 325 327 327 323 322 322 321 322 322 321 320 317 317 318 318 320 321 323 324 325 324 323 323 323 325 325 323 323 323 323 324 325 324 325 325 324 323 317 313 314 316 320 327 327 327 328 330 327 326 332 333 334 332 332 332 333
325 330 336 337 337 337 336 331 329 328 330 329 326 327 326 324 325 324 325 322 322 322 321 323 324 327 326 326 325 325 325 326 323 322 321 319 322 321 320 321 321 319 318 317 319 320 321 321 322 322 323 321 322 321 319 320 319 318 320 324 322 323 322 321 321 321 320 319 313 314 317 317 316 324 328 326 324 324 324 329 335 334 332 332 331
328 334 336 336 338 336 335 330 329 328 330 327 326 326 326 323 324 325 325 322 322 322 321 322 323 325 323 324 325 325 325 322 324 324 323 322 322 322 321 320 320 321 319 318 319 318 322 322 321 320 320 320 319 318 318 318 319 316 315 316 313 315 314 313 312 313 312 312 311 310 308 307 305 308 322 324 322 321 322 323 322 321 323 323 320
Wind_Speed
14 16 13 15 15 16 15 15 14 15 16 15 15 15 15 15 15 15 14 14 14 15 15 14 15 14 13 13 12 11 10 11 11 10 10 9 10 10 10 10 11 11 12 12 12 12 12 13 13 14 14 13 13 14 15 16 15 15 15 16 15 15 14 15 15 14 15 16 16 16 16 14 13 13 13 13 12 10 11 13 13 10 6 9 12
16 14 12 13 16 15 15 15 15 15 15 15 15 15 15 15 15 15 14 14 14 15 14 14 15 14 13 12 11 10 11 11 11 11 10 10 9 10 9 9 9 10 11 11 11 11 12 13 14 13 13 13 14 13 14 14 15 15 14 14 14 13 14 14 14 13 13 15 16 16 15 15 14 13 14 14 13 14 13 14 15 8 4 12 13
16 14 12 14 17 16 15 15 16 15 16 16 16 15 15 15 15 15 14 14 15 14 14 14 15 14 12 12 11 11 11 11 11 10 10 9 9 9 9 8 8 9 9 10 10 12 12 13 13 12 12 12 13 13 13 13 13 14 14 13 14 12 11 12 12 12 14 14 15 16 17 16 15 13 13 14 13 14 16 15 15 13 8 13 12
17 13 12 14 17 16 15 16 16 17 16 15 15 15 15 15 15 15 14 14 14 14 14 13 13 13 12 11 11 11 11 11 10 10 10 9 9 9 8 8 8 8 9 10 10 10 11 13 12 12 12 12 12 12 13 13 13 13 14 13 12 12 10 9 9 10 11 15 16 13 8 8 10 14 12 13 14 14 14 13 13 13 13 11 12
16 14 13 13 14 15 16 16 16 17 16 15 15 15 16 15 14 14 14 14 15 15 14 13 13 13 12 11 11 10 11 10 10 10 9 9 9 8 8 8 8 7 8 9 9 10 10 11 10 11 11 12 11 11 12 13 13 12 12 13 11 8 8 7 6 7 10 12 14 9 8 9 8 13 12 12 13 12 12 13 12 11 12 13 12
15 14 13 12 12 14 16 16 17 16 16 16 15 15 15 15 15 15 14 15 16 15 14 13 13 13 12 11 10 11 10 10 10 10 10 9 8 8 8 7 7 7 8 8 7 8 9 9 8 10 11 11 13 12 12 12 12 12 12 11 8 7 5 5 5 4 5 7 8 5 7 9 9 8 12 11 11 11 10 10 12 11 12 12 12
17 13 13 12 10 13 16 17 18 16 16 16 16 16 16 16 15 15 15 16 16 16 14 13 13 13 12 11 11 10 10 10 10 10 10 9 9 8 8 8 8 7 6 6 6 7 6 7 8 9 10 13 12 12 11 11 12 12 11 10 7 4 3 1 2 3 6 6 4 4 3 10 9 7 12 10 9 9 10 10 9 9 10 12 12
14 12 12 12 10 13 16 17 17 16 17 17 17 16 16 16 16 16 16 16 16 15 14 14 13 13 12 12 11 11 10 10 10 10 9 9 9 9 8 7 8 7 6 5 5 6 6 7 8 9 12 12 11 12 11 11 11 12 11 9 6 3 1 2 4 5 5 6 4 5 6 9 9 8 11 11 8 7 6 9 10 9 9 11 11
14 14 13 11 12 16 16 16 16 17 16 17 18 17 17 17 16 17 16 16 16 15 15 14 14 13 13 12 11 11 11 10 10 9 9 9 9 9 8 7 7 7 7 8 7 6 5 7 7 8 8 9 10 10 12 10 10 12 10 8 4 1 4 7 5 7 6 6 7 4 11 10 10 9 9 11 7 4 5 8 9 12 12 11 10
15 14 13 11 12 16 16 16 17 18 18 18 18 18 17 17 16 16 16 16 16 15 15 15 14 13 13 12 11 11 10 10 10 9 9 9 9 9 8 7 7 7 7 8 9 9 8 7 8 10 10 10 10 10 10 10 9 9 8 6 3 4 5 6 9 8 5 7 12 14 13 15 10 9 10 6 6 9 12 14 10 8 8 10 11
16 13 12 12 15 15 16 15 16 16 16 17 17 17 17 16 16 15 16 16 16 15 15 14 14 13 12 12 11 11 10 10 10 9 9 9 9 9 9 8 7 6 8 9 9 10 10 11 13 11 11 12 11 11 10 9 8 7 6 4 1 4 6 7 9 5 6 4 11 10 14 18 8 6 11 9 7 9 11 11 10 9 9 9 10
14 13 12 12 16 15 15 15 16 16 16 16 16 17 16 16 15 15 15 15 15 14 14 13 12 13 12 12 12 11 10 10 10 10 10 9 9 9 8 8 7 7 8 8 9 10 12 12 13 12 10 10 10 10 10 8 7 7 5 3 3 3 8 8 6 4 7 8 12 12 12 11 9 10 13 10 6 7 9 7 9 8 9 10 9
15 14 12 12 12 14 15 15 15 15 16 16 16 16 16 15 14 14 14 13 12 13 13 12 12 11 12 12 11 11 10 10 10 10 10 9 9 9 8 7 7 7 7 7 8 9 10 12 12 11 9 10 9 9 8 8 6 6 4 4 4 5 7 10 7 7 3 6 10 12 13 9 8 12 11 9 8 7 8 8 8 9 8 9 8
15 14 13 12 10 15 14 14 14 14 15 15 15 14 15 15 14 13 13 12 12 12 11 11 11 11 11 11 11 10 10 10 10 10 10 10 9 8 8 7 7 7 7 7 7 8 10 10 11 10 10 9 9 7 7 6 6 5 4 4 3 5 7 7 8 8 2 5 11 13 11 8 8 13 11 8 8 8 8 8 8 9 8 8 9
15 15 13 12 12 11 16 13 12 13 13 13 13 13 14 13 13 12 13 13 12 11 11 11 11 10 11 11 11 10 10 10 10 10 9 9 8 8 7 7 7 7 6 7 8 9 10 9 9 10 10 9 7 6 5 4 5 6 5 3 2 5 6 5 6 8 5 5 9 12 10 8 13 14 12 10 8 8 8 8 8 8 9 8 9
16 15 15 12 12 12 11 13 13 12 13 13 12 13 13 13 12 12 12 13 12 11 10 10 10 10 9 9 9 10 10 10 10 10 9 9 8 8 7 7 7 6 6 6 8 9 9 9 9 9 9 8 6 4 3 2 2 5 5 4 4 5 6 5 5 7 6 2 7 9 9 8 14 12 10 9 9 9 7 8 8 8 8 9 8
13 16 15 14 14 11 11 11 12 15 12 11 12 12 12 12 12 12 11 11 12 11 11 10 10 9 9 8 8 8 9 10 10 9 9 8 8 8 8 7 6 6 6 7 8 9 9 9 9 8 8 6 5 3 3 2 1 4 5 6 5 5 6 5 5 7 0 0 11 9 7 8 13 12 11 9 8 8 8 7 7 7 7 8 8
13 15 15 14 13 12 11 11 11 10 10 10 11 11 11 11 10 11 11 11 11 11 10 10 10 9 9 8 8 8 9 9 10 9 8 8 6 7 7 7 7 7 7 9 9 9 9 8 8 8 7 6 4 3 3 2 1 3 5 5 6 6 5 6 2 6 3 9 10 9 7 10 14 13 10 8 7 8 8 8 7 7 7 7 7
9 13 14 14 13 12 12 10 9 9 9 8 8 9 12 11 10 11 11 10 10 11 10 10 10 9 9 9 8 8 7 7 8 7 7 8 8 7 6 7 7 7 8 8 9 9 8 9 8 8 7 5 5 4 4 4 1 4 5 6 7 5 6 4 4 3 6 9 7 7 7 13 12 14 11 8 7 7 8 7 7 7 7 6 7
4 10 10 8 10 12 9 9 8 9 7 7 8 9 10 11 11 12 11 11 10 11 10 10 10 10 10 10 9 7 6 5 7 6 7 8 8 6 7 7 8 8 8 9 9 9 9 9 9 8 7 6 6 6 4 4 4 3 7 8 6 6 4 3 6 1 9 8 9 6 10 13 13 12 12 9 7 6 7 7 6 6 6 6 6
9 7 8 8 8 8 11 7 8 9 7 8 7 8 9 12 10 11 12 11 10 9 10 9 9 8 8 8 7 5 4 4 4 5 7 6 4 7 8 8 8 8 8 8 7 8 9 9 9 9 8 8 7 7 5 4 4 4 7 9 8 4 4 5 1 2 9 8 8 7 12 13 12 12 11 9 9 7 6 7 6 6 6 5 6
1 8 9 8 8 8 9 9 7 9 8 6 6 6 8 9 9 8 8 8 8 8 7 5 7 5 6 5 3 3 2 3 4 6 5 5 6 8 9 8 8 8 7 7 6 7 8 8 8 9 9 8 9 4 4 6 7 6 7 9 5 4 4 4 1 1 10 7 7 8 12 12 11 11 10 9 8 8 7 6 6 6 5 5 5
2 4 9 10 7 9 8 9 9 10 10 8 6 6 8 6 8 7 7 8 7 7 6 7 6 6 6 5 2 3 2 0 1 5 3 5 5 8 8 7 7 8 8 8 7 8 7 8 9 9 8 8 5 4 4 4 5 9 7 6 5 3 6 2 2 1 9 8 7 13 13 12 11 10 10 9 9 7 7 6 6 6 6 5 5
6 5 8 10 10 8 8 7 10 10 8 6 5 5 5 5 5 6 5 5 5 5 5 4 5 5 5 3 2 3 4 2 3 7 7 3 4 6 7 7 7 8 9 7 8 7 9 9 9 9 6 5 5 5 4 4 4 4 5 5 6 7 2 2 1 3 7 10 8 13 13 13 11 11 10 8 8 7 7 6 6 6 6 5 4
9 7 8 10 14 13 8 8 7 7 7 5 6 4 4 3 4 4 5 4 5 4 4 5 4 5 4 3 5 4 4 4 2 2 2 3 2 3 2 2 3 4 8 3 4 4 6 5 5 6 4 5 6 6 5 5 5 5 6 7 7 2 3 1 3 7 6 7 9 13 12 8 7 10 9 8 8 7 7 6 5 6 6 5 5
13 10 11 11 12 14 14 10 9 6 6 6 6 7 6 5 5 4 4 4 4 3 3 3 4 3 5 5 3 2 1 1 1 1 1 2 2 3 3 3 3 3 5 3 4 4 4 5 5 6 5 6 7 6 4 1 8 6 5 7 4 3 3 5 2 8 6 7 9 14 12 9 8 10 9 9 8 7 7 6 6 5 5 5 5
7 10 11 12 12 13 14 11 10 8 5 3 6 5 5 4 4 4 5 4 4 4 3 4 1 4 4 4 5 2 2 1 1 1 3 2 2 2 1 1 1 1 3 4 5 5 6 5 4 5 6 6 6 4 2 2 1 1 0 2 3 3 4 3 4 8 6 7 8 15 12 10 9 9 10 10 8 8 8 8 7 5 5 5 5
6 8 8 10 14 16 15 13 10 9 6 4 5 4 4 5 2 4 2 4 3 4 6 4 6 5 4 3 4 4 3 2 2 2 3 2 3 4 0 1 0 2 3 4 4 7 6 5 5 3 3 3 3 2 2 1 2 2 3 3 3 0 3 2 1 7 7 7 7 11 12 11 9 9 11 10 8 9 8 7 7 6 6 5 6
9 6 6 9 12 14 16 13 13 13 9 9 7 4 4 6 4 4 4 4 4 3 3 3 2 3 4 3 4 4 2 3 4 2 1 1 4 4 3 3 2 3 3 5 4 5 6 6 5 6 6 5 3 3 2 3 2 1 3 3 1 3 2 4 1 4 7 7 6 9 13 12 10 8 10 12 10 9 8 8 8 7 7 7 6
8 7 5 5 9 11 17 17 14 11 9 8 5 6 6 6 5 3 2 3 4 4 3 3 2 2 1 3 3 4 3 1 3 4 6 6 4 4 5 5 5 6 5 6 5 4 2 3 5 5 5 4 4 4 3 3 2 3 2 3 1 2 2 4 5 3 6 7 7 7 13 12 10 8 7 12 12 10 9 8 9 8 7 8 7
6 8 4 4 5 8 11 11 11 13 11 7 5 2 4 6 7 6 4 1 1 3 3 3 3 2 3 3 3 2 2 2 3 2 1 2 3 5 5 4 4 3 2 2 2 0 2 2 4 4 3 3 5 6 4 5 3 3 4 5 3 3 2 3 5 5 3 8 7 7 9 12 11 9 6 8 10 11 11 9 10 9 7 9 8
6 4 4 7 3 6 11 11 9 6 2 14 12 8 4 2 3 3 5 5 1 3 2 1 2 3 3 3 4 3 2 0 3 4 4 3 5 5 3 2 2 1 1 1 3 3 2 2 2 4 2 3 1 7 6 4 5 4 5 3 4 3 3 3 2 2 5 7 7 6 6 8 12 12 10 6 4 10 11 11 10 11 8 10 9
3 5 8 4 8 11 10 9 8 3 7 7 6 5 5 10 8 4 1 3 4 2 2 2 2 2 3 1 2 4 4 3 3 3 2 5 5 3 6 3 2 3 2 3 4 1 1 0 2 2 2 2 2 2 1 2 1 3 2 3 2 2 4 2 3 3 3 7 7 8 7 7 7 11 11 10 6 6 10 10 10 11 11 9 9
4 6 5 7 7 7 7 6 6 7 6 5 3 3 2 4 2 10 7 3 5 1 2 1 2 1 1 1 2 2 2 5 8 7 8 5 3 7 7 3 3 3 2 1 1 1 2 2 0 2 2 2 1 2 2 2 2 6 6 6 7 7 6 3 1 3 3 1 6 7 7 6 6 6 6 11 10 8 8 8 11 10 11 11 10
6 6 7 8 8 7 6 5 7 6 6 4 4 4 4 3 4 7 5 11 9 5 3 2 1 1 3 3 4 3 6 8 3 4 3 3 4 4 3 4 1 1 3 2 2 2 2 1 0 1 1 2 2 0 3 4 2 4 5 5 6 7 6 6 7 5 1 4 1 4 7 7 7 6 6 6 9 10 9 8 10 11 12 11 11
8 7 7 8 8 7 6 7 6 7 7 6 5 4 4 3 3 5 5 2 10 10 10 6 5 6 7 5 6 7 4 3 1 3 2 2 2 3 3 3 4 3 4 4 3 2 2 2 4 4 2 3 2 2 2 3 3 3 3 4 4 5 5 4 5 6 4 0 4 2 4 7 7 6 8 6 6 9 13 11 10 10 10 12 12
8 7 8 8 8 9 7 6 7 7 6 6 5 4 4 4 4 3 5 4 3 5 7 9 7 5 7 6 7 5 5 6 5 2 0 1 1 1 3 2 3 2 3 2 2 2 1 4 4 5 6 3 3 2 3 2 2 3 3 4 4 4 4 5 5 5 7 7 1 3 3 2 4 10 7 7 7 7 12 14 13 11 10 10 12
8 8 7 8 8 8 7 6 6 6 5 5 4 3 4 3 3 4 4 3 3 3 6 7 5 4 3 3 3 3 3 3 1 1 2 0 1 2 3 2 3 3 3 1 0 2 5 8 4 5 3 3 3 2 2 5 6 4 4 2 2 2 2 4 4 5 5 5 6 5 2 2 4 4 8 7 8 7 7 13 15 13 11 10 10
7 9 7 7 7 7 6 7 7 6 5 4 5 5 4 5 3 4 3 3 4 3 4 6 5 5 3 4 3 2 2 4 2 0 1 1 1 0 1 2 2 4 2 1 2 2 8 5 3 2 2 2 2 2 3 3 1 3 1 1 1 1 2 2 2 4 4 4 3 6 6 3 4 3 3 7 8 7 8 7 8 7 8 12 11
6 8 7 7 7 7 6 6 7 6 5 4 4 3 2 3 3 3 5 5 5 4 3 3 3 4 3 4 5 3 5 4 3 2 2 1 1 2 0 2 2 3 3 3 1 4 6 5 5 1 1 4 4 4 4 3 3 2 2 2 1 1 2 1 2 2 2 3 3 3 4 7 8 4 2 2 3 7 7 8 8 8 7 11 14
7 9 7 7 7 7 8 8 7 6 5 4 4 3 3 3 2 5 4 3 4 5 6 6 5 5 6 6 5 3 3 3 1 4 3 3 3 3 0 1 3 3 3 1 2 5 5 5 1 2 2 1 2 3 1 2 1 2 1 1 2 1 1 1 2 1 2 2 4 4 4 6 6 7 7 6 4 2 7 7 8 7 8 7 11
6 8 8 8 7 8 8 8 6 6 5 4 3 4 3 4 2 3 3 4 4 4 5 5 5 4 4 3 2 1 1 2 1 2 2 1 3 4 4 3 4 3 3 1 3 5 4 5 3 4 2 3 1 2 3 3 1 1 1 2 2 2 2 2 2 2 0 1 2 3 5 5 5 5 6 7 10 9 3 8 7 8 8 8 9
5 8 7 8 9 8 8 7 6 6 4 5 5 4 4 2 2 2 5 7 7 6 5 4 4 5 2 3 2 2 2 2 1 1 2 3 4 3 3 4 3 3 2 1 2 5 4 4 4 2 4 2 1 2 4 3 2 1 2 3 1 1 1 1 2 2 2 1 2 2 1 2 4 5 4 4 4 6 7 4 2 5 6 8 7
6 7 8 10 8 8 8 8 7 5 5 5 6 6 5 6 8 8 8 7 5 5 5 3 3 4 5 3 3 3 4 5 6 1 4 3 3 2 5 5 2 3 5 3 2 3 3 5 4 3 1 2 3 1 2 2 1 4 1 2 0 0 2 1 2 1 1 1 1 0 1 2 0 2 2 3 2 3 5 4 4 5 6 7 0
6 10 10 10 7 9 9 9 7 7 6 6 8 7 7 6 7 7 7 6 4 4 3 3 3 3 3 3 2 3 3 3 2 5 5 5 5 3 4 3 3 3 2 5 4 5 4 3 5 3 2 1 2 1 2 3 2 1 1 2 1 1 1 1 2 1 0 1 1 1 2 2 2 1 3 3 3 2 5 3 4 3 3 4 4
6 3 10 10 10 9 10 9 6 7 7 7 8 7 6 6 6 6 5 4 4 4 5 4 2 3 3 3 4 4 4 3 4 4 3 3 1 4 4 3 3 3 4 5 4 4 8 6 6 5 4 1 2 1 2 5 4 3 3 0 1 0 1 1 2 1 1 1 2 1 2 2 0 2 3 2 5 5 7 2 1 1 1 3 4
9 10 13 12 11 10 11 9 8 7 7 8 8 7 7 6 6 5 4 4 5 4 4 5 5 4 4 4 3 3 4 3 3 4 5 6 6 5 5 5 4 3 2 5 6 6 6 7 4 4 5 4 2 2 2 1 3 3 1 2 0 0 1 1 1 1 1 1 0 1 2 1 3 4 4 4 2 2 0 1 1 2 1 2 3
9 11 16 12 12 11 11 10 8 9 7 8 8 6 7 6 6 5 5 5 5 6 5 4 4 4 3 3 3 2 3 3 3 3 4 6 5 4 5 6 4 4 7 7 7 7 7 6 6 5 5 4 4 5 5 3 1 1 3 3 3 1 1 1 0 1 0 1 1 0 1 2 1 1 2 3 3 0 2 2 1 4 3 2 2
10 17 15 11 11 11 11 10 9 10 9 10 8 7 6 7 5 5 5 5 7 5 5 4 4 4 3 3 3 4 4 4 4 4 4 4 4 4 5 5 6 6 7 7 5 6 6 5 4 4 4 5 4 3 2 5 5 3 2 2 2 2 2 1 1 1 1 1 2 2 2 1 2 3 3 3 2 4 4 4 3 5 5 4 2
15 18 13 10 11 11 11 12 11 10 10 10 9 8 8 7 6 6 5 8 6 6 5 5 4 3 3 3 4 4 4 3 4 4 4 4 3 4 4 4 4 4 4 5 6 5 4 4 4 4 4 5 4 5 5 5 5 4 2 1 1 2 2 1 2 2 1 1 2 3 3 3 3 2 4 3 3 3 4 3 2 4 4 4 4
17 13 10 11 11 12 12 13 12 10 11 11 10 10 8 7 6 6 7 9 7 7 7 5 4 4 4 3 3 4 4 4 3 3 3 3 4 3 3 3 4 5 5 5 4 4 4 3 4 4 4 4 5 5 6 6 4 5 4 4 4 4 4 3 3 3 3 2 3 3 6 6 4 3 3 4 3 4 3 3 5 4 5 6 6
Wind_Direction
131 134 132 130 124 123 122 121 120 119 120 119 119 117 119 123 125 127 128 127 125 123 121 114 110 108 103 99 96 88 87 94 102 101 100 96 89 86 88 90 90 98 98 97 99 97 92 89 88 88 86 85 85 82 80 73 71 78 84 81 81 82 86 85 87 92 92 89 90 91 83 84 82 73 69 49 49 62 62 75 73 71 68 73 74
137 131 131 129 123 122 124 122 122 121 119 116 115 119 124 125 126 128 128 126 124 122 116 112 112 112 108 103 98 96 97 94 97 100 101 99 96 92 92 94 96 96 100 98 94 94 92 88 88 88 89 88 85 83 82 81 78 80 82 84 85 86 80 85 92 98 100 96 92 89 85 78 73 70 57 56 51 60 63 66 75 74 62 69 67
129 129 129 127 122 122 124 125 123 120 119 119 119 122 124 126 126 124 123 122 123 120 117 112 113 115 111 107 103 100 102 101 98 99 100 103 102 99 97 100 99 99 98 98 99 95 94 92 88 86 88 89 89 87 88 86 84 82 81 85 85 91 96 94 95 102 103 106 104 100 94 78 64 65 69 66 62 62 62 64 69 71 70 70 65
128 127 126 124 121 124 126 128 125 123 122 120 121 123 123 125 124 123 119 116 119 119 115 113 112 115 115 110 109 102 104 102 102 98 96 97 100 100 97 99 104 98 96 96 98 98 97 97 93 88 85 84 83 85 86 87 87 86 83 84 86 81 89 102 113 111 114 124 123 113 95 84 73 68 68 69 62 62 67 73 73 76 71 70 73
126 126 127 129 127 127 128 128 126 126 124 123 122 124 123 123 122 119 121 117 114 116 116 115 114 118 118 116 112 107 105 103 102 100 97 93 93 96 96 94 98 99 97 99 101 102 103 96 94 90 89 85 87 91 94 93 91 91 88 83 85 97 88 93 99 123 136 152 153 110 96 96 86 75 78 77 69 71 75 73 72 75 76 69 70
130 128 131 132 132 131 126 126 130 128 126 125 124 123 124 123 122 123 123 117 116 118 119 119 118 120 121 118 113 112 106 104 103 98 95 91 87 92 98 95 95 101 103 106 114 113 96 93 93 90 89 84 81 87 94 95 95 94 94 91 92 85 82 90 110 146 135 192 230 299 111 98 95 81 83 80 75 72 72 74 77 80 86 88 72
130 133 132 132 133 134 129 130 134 129 126 125 123 123 125 125 125 124 124 124 120 120 121 121 121 121 121 118 115 111 110 107 102 99 96 94 89 86 91 95 98 100 101 95 88 89 91 92 95 96 93 93 90 88 86 90 99 97 96 99 89 68 64 24 260 184 228 193 237 230 119 105 98 94 83 82 84 76 72 81 85 71 76 78 78
129 133 136 132 130 134 130 129 128 128 131 128 129 126 125 126 124 123 125 124 123 121 121 123 123 122 121 118 114 113 111 106 102 98 97 94 90 85 88 95 98 97 99 95 94 91 97 103 100 92 99 97 93 86 83 84 92 96 92 93 80 51 313 294 260 255 258 245 224 231 128 104 100 93 88 76 71 82 92 77 76 88 78 79 86
132 135 132 127 129 132 129 126 127 127 129 131 131 128 129 129 127 126 124 124 124 122 123 124 125 124 120 119 117 114 113 110 104 103 99 96 95 93 89 91 91 94 81 60 58 93 99 102 99 103 95 92 83 80 83 91 97 93 93 93 98 33 272 280 298 289 265 252 244 109 109 103 92 100 95 76 60 70 96 103 88 65 64 75 75
132 131 128 126 133 131 128 127 129 130 131 131 130 130 128 131 128 124 122 121 123 124 126 126 126 124 123 120 121 121 118 115 113 107 104 99 103 102 98 94 95 94 87 78 80 79 70 78 91 85 90 89 86 83 79 82 94 93 94 94 127 260 285 300 303 306 269 287 79 66 80 91 95 92 97 84 85 77 76 73 74 73 78 79 80
133 130 127 126 132 128 128 126 126 127 127 126 129 131 130 130 128 124 124 125 126 127 129 128 127 127 125 124 124 123 120 116 116 112 105 104 107 107 104 98 96 95 91 83 84 81 75 83 81 83 86 90 98 101 97 92 94 94 93 92 166 267 289 297 294 278 298 239 99 93 92 94 95 99 102 103 86 79 78 78 82 88 91 88 88
129 124 122 124 127 127 127 126 126 126 125 126 128 128 130 130 125 125 126 126 127 128 128 129 128 127 128 126 124 124 122 119 116 116 111 110 112 111 109 107 101 99 95 92 92 95 89 92 100 98 97 100 102 103 106 108 104 109 116 157 226 264 265 281 286 276 274 97 78 95 98 97 98 105 101 102 118 101 78 87 94 93 88 85 91
130 123 119 123 126 127 126 125 123 125 126 126 128 129 128 127 126 127 127 125 124 126 129 129 128 127 127 128 127 125 125 122 119 119 116 112 114 114 114 117 112 105 102 100 100 105 105 103 105 110 113 109 107 108 116 124 127 120 141 195 232 270 291 306 306 303 261 91 109 96 94 97 105 110 111 108 110 104 100 96 97 88 91 94 84
122 123 125 126 127 128 124 122 122 125 126 126 127 128 129 129 131 129 125 122 123 125 123 124 126 128 129 130 128 126 124 124 123 119 117 115 116 118 120 121 119 112 109 111 108 105 108 114 116 118 118 114 111 118 127 132 138 139 147 216 267 302 312 305 280 271 188 113 92 105 110 112 114 112 110 117 106 110 109 105 102 102 101 102 103
127 129 126 122 128 126 120 116 118 121 119 118 119 123 125 128 129 129 127 126 124 121 123 127 127 129 129 130 128 126 124 127 125 121 117 124 124 123 124 126 123 122 120 120 122 119 118 124 125 123 118 122 129 133 136 141 147 159 175 225 249 297 307 304 308 303 100 71 111 108 109 112 119 119 122 129 126 107 113 112 108 107 98 98 97
129 127 124 128 128 129 125 122 116 116 116 118 121 121 120 121 125 129 130 131 125 124 125 123 124 127 127 124 126 129 134 129 126 126 125 125 132 130 126 127 130 131 128 127 121 124 127 129 130 127 130 136 138 123 97 107 168 178 180 191 242 280 291 299 291 308 81 150 100 104 102 110 113 114 120 125 128 127 116 117 112 107 109 102 105
134 130 132 133 134 131 128 129 119 111 107 114 119 120 118 119 122 124 123 123 128 131 130 126 125 124 121 122 126 131 134 132 131 131 128 129 137 135 129 130 135 136 138 128 130 132 136 138 140 140 139 146 142 131 120 116 184 199 189 191 219 264 270 294 299 306 126 120 107 101 111 115 114 114 118 126 127 128 126 120 117 110 102 100 105
134 139 136 138 141 135 133 127 126 121 115 104 110 117 122 122 122 124 123 122 129 131 129 125 128 128 126 128 131 134 139 138 136 138 139 137 126 132 131 139 140 147 146 138 144 147 145 149 153 150 151 153 144 141 122 125 194 224 223 228 220 248 262 285 268 280 55 63 86 107 108 119 120 120 120 127 133 133 133 131 127 119 117 110 99
132 138 139 142 141 138 130 133 133 132 129 124 129 110 114 118 119 118 118 124 127 132 129 125 132 129 132 134 136 136 137 138 128 128 131 125 131 128 134 140 146 149 151 152 156 158 157 158 164 162 161 158 153 147 153 134 168 261 256 253 255 259 285 275 268 209 113 88 90 98 111 123 128 124 125 130 135 136 138 133 133 129 116 120 122
175 132 121 111 131 134 129 140 139 137 137 130 128 129 117 115 115 116 119 121 122 122 119 132 129 130 136 141 137 138 134 134 134 129 134 128 134 147 142 146 153 159 159 163 166 167 165 169 168 170 169 166 162 160 154 166 155 240 267 279 278 315 306 284 274 152 93 103 106 111 127 124 124 125 126 134 142 141 132 138 131 130 122 112 123
130 134 116 127 123 130 140 137 150 136 135 134 136 137 133 121 116 116 115 118 126 134 128 120 124 131 141 138 147 154 154 144 156 150 147 147 151 137 154 159 158 165 170 169 172 171 170 174 174 175 177 175 167 159 167 172 191 218 251 270 286 285 269 279 295 63 105 106 110 116 126 127 126 126 132 144 142 133 144 144 149 131 131 121 114
179 135 142 129 136 138 143 145 144 140 141 142 147 138 147 143 138 138 133 127 134 132 131 139 142 148 129 142 149 78 43 144 171 152 173 151 146 153 156 163 168 165 166 169 170 169 177 184 183 185 182 182 177 175 181 192 196 208 235 255 269 267 270 258 55 3 102 104 111 125 126 130 132 130 137 143 140 138 154 154 150 149 132 137 123
258 141 126 131 123 125 124 143 149 150 157 155 149 147 156 157 155 154 146 153 157 158 149 155 159 162 163 157 128 124 131 110 171 167 163 163 149 155 150 162 170 169 172 180 172 178 185 192 192 194 189 192 194 230 193 193 196 207 214 239 250 255 251 268 119 319 108 115 117 130 128 133 138 140 139 146 148 149 156 158 150 147 147 144 136
183 170 135 134 133 128 138 145 145 148 155 141 145 141 156 169 158 166 152 158 161 168 156 162 151 174 168 150 128 173 131 27 243 183 176 163 121 154 157 160 169 175 178 178 181 181 191 193 196 198 194 212 227 226 218 197 202 186 195 219 233 238 139 283 300 97 119 117 123 131 130 136 144 145 148 153 151 153 154 148 170 154 156 153 146
165 172 146 144 140 138 144 145 147 151 136 123 136 143 147 180 155 168 163 169 165 169 149 175 190 184 170 176 177 187 153 188 154 264 139 140 159 165 170 183 177 178 181 182 169 175 190 195 197 198 211 227 231 231 218 196 205 187 193 213 229 188 148 235 264 83 106 119 129 129 127 114 136 148 153 152 159 159 155 157 169 161 155 165 157
156 150 150 140 135 140 145 151 150 132 136 143 153 155 156 172 162 163 175 174 177 166 147 183 177 182 188 179 159 164 105 146 128 128 48 133 172 137 199 211 188 191 177 196 147 162 211 210 189 195 218 221 235 242 214 162 172 192 200 214 189 160 194 196 177 102 100 122 136 132 128 127 123 146 155 155 160 170 156 160 161 165 159 168 171
150 139 142 140 142 145 144 149 145 142 135 144 138 151 163 155 152 165 170 170 171 144 200 189 110 199 202 174 141 116 97 79 8 48 79 42 36 325 210 243 235 241 184 228 170 185 200 200 211 199 209 225 230 237 262 185 286 226 212 254 182 202 186 178 124 115 123 130 137 135 135 136 132 156 155 155 165 164 167 160 159 162 176 188 177
142 149 144 135 148 152 148 156 148 141 152 145 146 157 144 151 153 175 202 119 145 169 193 172 173 189 217 136 106 134 138 118 172 124 92 152 201 228 283 196 25 270 268 236 205 182 191 203 183 194 239 245 246 250 280 242 195 354 310 263 174 14 34 57 58 108 132 134 138 143 142 141 148 159 161 158 163 164 170 168 163 157 169 192 189
128 148 138 159 154 147 149 146 151 156 148 156 170 159 146 156 166 178 179 157 146 194 173 120 152 153 202 157 119 124 142 219 155 164 90 322 232 217 184 211 186 228 245 249 234 200 194 170 173 199 202 202 208 201 211 270 84 309 274 277 227 151 186 112 99 116 132 135 142 153 151 150 156 169 164 159 161 171 169 175 165 163 165 185 193
141 125 170 181 139 151 138 150 162 156 156 153 155 159 146 158 155 179 144 155 155 168 129 137 109 104 69 112 148 139 142 174 122 147 178 172 222 205 192 183 198 205 211 229 215 235 186 180 171 215 184 194 185 176 165 265 170 204 271 282 291 302 162 144 143 174 140 141 142 156 157 155 158 169 183 161 169 166 171 173 169 164 168 173 186
138 144 157 105 88 137 126 147 120 138 157 151 156 160 173 160 161 154 154 147 103 138 119 152 135 128 109 119 128 151 161 128 126 131 97 107 216 214 203 195 197 211 189 195 264 302 239 176 207 194 216 202 191 151 173 198 199 223 212 204 248 215 264 157 160 164 166 132 150 156 161 161 162 165 178 177 176 170 172 174 178 174 173 178 181
126 142 106 97 176 120 106 88 87 51 35 145 151 166 191 207 151 137 146 132 115 32 61 12 92 78 97 128 164 147 150 62 139 153 171 192 220 246 265 185 201 264 254 256 231 214 216 233 317 207 149 238 249 158 180 186 176 194 254 252 186 189 216 211 171 178 172 132 147 148 152 173 171 166 173 180 207 180 180 179 178 177 180 184 184
129 101 98 107 68 71 81 94 94 91 70 64 90 119 169 169 177 155 99 97 89 85 134 115 63 190 129 204 129 167 154 152 243 170 260 201 197 125 271 200 199 184 213 238 261 162 290 306 250 36 92 120 354 33 129 99 17 206 262 237 269 219 186 241 160 226 168 131 153 154 164 167 179 171 172 180 180 199 189 187 185 182 182 189 189
114 96 100 84 82 82 89 97 112 94 74 81 42 84 70 63 182 132 146 101 66 65 353 17 92 61 79 192 199 191 114 222 188 183 213 207 198 173 206 210 187 172 203 251 298 332 249 253 145 33 24 73 69 15 326 53 24 30 31 14 7 0 355 332 245 192 130 117 139 151 155 173 168 169 176 180 185 191 212 199 193 196 187 190 196
103 117 108 95 91 94 98 96 97 100 106 100 98 106 37 17 68 78 104 139 163 156 198 221 268 325 35 348 348 276 205 215 194 170 198 194 201 199 181 165 342 226 178 195 210 206 284 254 306 137 115 40 38 2 42 73 38 40 36 17 7 356 5 350 345 344 328 155 168 141 164 159 162 171 175 176 186 194 199 214 209 198 199 194 199
120 124 110 109 108 103 102 96 97 89 81 86 79 71 77 72 95 105 115 138 132 167 163 182 181 175 144 179 198 239 248 300 250 184 202 211 214 213 176 108 146 197 185 167 206 194 193 39 26 15 45 61 23 14 32 53 49 71 38 32 24 1 346 350 347 338 323 169 155 232 168 161 162 173 177 173 182 192 197 203 213 219 204 200 198
131 133 127 120 117 114 109 114 104 103 101 98 90 106 137 109 92 129 154 141 131 133 145 138 147 160 152 173 199 188 161 192 229 201 7 315 302 309 20 106 180 143 143 150 192 200 65 82 40 23 28 59 23 17 56 45 64 65 52 32 10 2 350 352 347 353 338 340 332 207 188 197 166 177 172 175 181 188 196 197 206 212 221 206 201
135 129 127 127 125 121 121 114 106 98 105 96 121 118 89 100 80 58 34 91 127 136 114 116 114 115 132 140 142 134 144 99 49 325 126 166 340 346 29 277 80 89 58 6 47 0 64 47 7 30 37 36 58 4 360 34 341 11 52 21 33 12 351 342 345 332 322 332 337 316 269 212 219 181 175 175 179 183 189 200 202 206 208 215 203
137 131 135 123 125 122 118 114 108 112 106 121 83 71 73 70 123 125 163 129 86 37 62 93 117 140 146 123 97 128 152 134 166 82 359 228 127 130 167 102 99 99 84 20 68 20 61 33 5 8 56 65 61 39 22 35 157 267 123 143 17 6 343 325 338 328 332 327 336 343 312 262 211 215 193 176 179 179 180 187 196 199 210 207 209
137 132 136 128 131 125 125 120 118 122 115 116 138 137 137 123 124 103 55 38 57 57 65 105 106 69 104 125 150 149 150 164 167 169 190 115 47 42 312 145 88 92 96 107 44 70 99 143 207 164 136 80 56 37 13 14 346 22 37 342 350 7 294 346 310 321 316 321 351 352 352 351 340 310 260 241 208 166 180 178 188 197 203 204 207
139 136 145 138 140 144 141 133 138 132 143 152 160 155 130 119 84 95 114 81 85 101 68 50 61 60 36 36 33 44 33 20 4 168 185 185 154 166 122 54 99 79 86 88 106 95 115 125 52 360 22 45 81 86 41 301 286 343 51 337 287 240 261 258 260 283 310 342 342 7 4 354 337 334 336 320 284 187 172 181 185 195 204 197 205
142 146 158 149 159 148 146 137 143 152 148 164 116 109 135 129 155 128 137 129 147 114 91 83 69 51 53 50 43 6 146 122 95 21 348 194 169 152 117 82 62 74 50 44 93 103 110 114 146 143 212 139 228 157 184 174 289 176 49 29 338 279 247 245 246 246 76 346 357 17 5 358 339 350 350 349 333 313 222 176 187 195 202 204 194
152 157 167 159 162 154 145 147 153 149 147 117 113 94 70 64 94 80 95 78 53 61 76 68 85 102 104 103 49 26 26 106 98 61 267 46 25 55 102 119 128 123 116 91 97 94 82 105 142 154 150 136 142 184 193 192 121 56 44 29 282 302 308 296 270 267 257 150 58 27 351 6 332 336 341 331 316 318 320 348 297 235 217 213 190
169 175 181 175 167 158 149 151 155 145 131 128 110 94 81 76 65 63 69 84 89 85 78 85 69 70 74 59 69 30 32 16 7 329 88 31 12 37 62 51 100 151 143 130 119 104 129 105 92 75 61 161 144 131 172 192 246 139 141 192 290 338 274 272 307 291 241 188 76 321 358 29 109 234 204 243 320 304 323 329 22 5 353 334 235
189 200 187 178 172 159 152 154 154 139 134 126 112 103 100 87 81 79 87 89 96 100 112 84 101 114 94 94 73 66 62 45 47 41 40 42 25 17 86 74 54 45 108 150 153 158 139 133 122 126 172 181 135 127 150 210 210 153 152 140 182 209 256 258 274 265 230 88 209 189 179 229 201 290 264 133 272 32 323 2 21 357 343 346 351
200 230 240 183 169 158 151 151 149 136 136 128 121 125 124 115 117 115 108 116 118 132 112 135 147 92 96 61 59 57 44 40 55 47 43 99 94 30 11 127 94 42 35 39 47 111 135 150 144 132 111 291 119 137 114 42 346 329 253 16 31 166 191 261 287 271 236 188 168 124 35 40 120 274 222 201 162 183 204 176 204 247 354 337 342
205 195 235 189 169 159 152 154 148 139 140 130 135 137 129 135 132 132 145 148 143 111 99 86 87 89 68 73 75 71 84 69 42 49 49 38 35 33 22 18 75 92 81 62 50 43 64 55 49 113 134 162 158 100 83 99 172 227 260 323 319 49 341 333 303 320 318 320 18 65 71 10 11 344 337 323 331 112 222 189 277 296 179 199 216
182 213 219 194 167 161 156 155 147 143 147 138 142 143 137 141 149 153 155 147 119 120 121 111 101 97 115 113 124 120 106 77 76 72 62 56 37 36 27 15 13 61 67 55 51 44 45 53 50 37 47 57 116 133 134 161 151 231 173 167 234 203 203 292 336 358 358 326 334 352 208 252 218 233 262 303 311 282 263 228 113 305 282 235 194
206 220 209 179 166 159 158 154 149 144 150 145 146 149 141 150 155 152 154 118 120 123 116 120 123 124 125 151 98 83 48 57 76 58 60 67 71 48 37 35 33 32 64 69 68 62 56 55 52 44 49 55 44 48 117 137 156 159 168 175 185 176 159 204 118 179 121 17 310 334 320 205 227 231 228 210 231 276 259 254 214 196 224 233 226
227 218 192 174 163 159 162 159 153 151 151 151 150 154 147 158 157 159 146 128 137 138 133 126 120 147 123 91 90 71 79 82 51 65 74 74 70 73 63 46 46 68 83 100 97 80 81 73 62 52 55 61 46 46 45 38 56 25 48 61 114 127 189 158 228 224 202 152 208 284 255 264 263 212 219 237 245 244 240 227 213 233 235 240 230
210 202 176 176 167 165 167 165 159 152 155 155 156 157 151 167 164 164 144 142 149 144 132 136 143 136 127 130 118 122 114 81 89 77 78 72 68 69 74 77 61 48 64 63 66 104 124 109 94 86 67 65 61 54 39 26 38 48 28 39 54 45 48 47 38 6 16 12 359 341 347 320 310 313 227 208 236 256 254 243 253 255 236 234 231